Printer-friendly version

IAU Minor Planet Center

Minor Planet Center

MPEC 2010-F22 : 2010 FK

The following Minor Planet Electronic Circular may be linked-to from your own Web pages, but must not otherwise be redistributed electronically.

A form allowing access to any MPEC is at the bottom of this page.


Read MPEC 2010-F21 Read MPEC 2010-F23


M.P.E.C. 2010-F22                                Issued 2010 Mar. 18, 16:36 UT

     The Minor Planet Electronic Circulars contain information on unusual
         minor planets and routine data on comets.  They are published
   on behalf of Commission 20 of the International Astronomical Union by the
          Minor Planet Center, Smithsonian Astrophysical Observatory,
                          Cambridge, MA 02138, U.S.A.

             Prepared using the Tamkin Foundation Computer Network

                              MPC@CFA.HARVARD.EDU
       URL http://www.minorplanetcenter.org/iau/mpc.html  ISSN 1523-6714

                                    2010 FK

Observations:
     K10F00K* C2010 03 17.15852 08 31 52.46 +21 18 01.2          18.5 V EF022G96
     K10F00K  C2010 03 17.16442 08 31 51.81 +21 19 28.4          18.6 V EF022G96
     K10F00K  C2010 03 17.17044 08 31 51.16 +21 20 57.3          18.6 V EF022G96
     K10F00K  C2010 03 17.17640 08 31 50.52 +21 22 25.2          18.6 V EF022G96
     K10F00K  C2010 03 17.19071 08 31 48.32 +21 25 50.8          18.3 R EF022H01
     K10F00K  C2010 03 17.19564 08 31 47.80 +21 27 03.1          18.0 R EF022H01
     K10F00K  C2010 03 17.19991108 31 44.50 +21 27 44.0          18.4 V EF022H21
     K10F00K  C2010 03 17.20276308 31 44.23 +21 28 25.4          18.6 V EF022H21
     K10F00K  C2010 03 17.20544 08 31 46.75 +21 29 26.7          18.2 R EF022H01
     K10F00K  C2010 03 17.20557308 31 43.95 +21 29 06.2          18.6 V EF022H21
     K10F00K  C2010 03 17.20820608 31 43.72 +21 29 44.3          18.6 V EF022H21
     K10F00K  C2010 03 17.21325 08 31 45.92 +21 31 20.9          18.6 R EF022H01
     K10F00K  C2010 03 17.23399 08 31 44.33 +21 36 29.2          19.7 R EF022854
     K10F00K  C2010 03 17.23701 08 31 44.01 +21 37 13.4          19.7 R EF022854
     K10F00K  C2010 03 17.24000 08 31 43.78 +21 37 59.1          20.1 R EF022854
     K10F00K  C2010 03 17.27739 08 31 39.51 +21 46 52.3          18.8 R EF022H01
     K10F00K tC2010 03 17.27975 08 31 39.78 +21 47 33.6                 EF022291
     K10F00K tC2010 03 17.28394 08 31 39.35 +21 48 35.0                 EF022291
     K10F00K tC2010 03 17.28824 08 31 38.96 +21 49 37.4                 EF022291
     K10F00K  C2010 03 17.29050 08 31 38.32 +21 50 01.2          18.5 R EF022H01
     K10F00K  C2010 03 17.30238 08 31 37.29 +21 52 52.2          18.1 R EF022H01
     K10F00K  C2010 03 17.32544 08 31 35.39 +21 58 23.3          18.6 R EF022H01
     K10F00K QC2010 03 17.45162 08 31 38.89 +22 32 15.9          19.2 R EF022E12
     K10F00K QC2010 03 17.45393 08 31 38.63 +22 32 49.7          19.1 R EF022E12
     K10F00K KC2010 03 17.88322 08 31 19.22 +24 11 58.7          18.1 R EF022B04
     K10F00K KC2010 03 17.88682 08 31 18.95 +24 12 49.6          18.4 R EF022B04
     K10F00K KC2010 03 17.89677 08 31 18.02 +24 15 09.6          18.2 R EF022B04
     K10F00K KC2010 03 17.90649 08 31 18.64 +24 17 13.0                 EF022J95
     K10F00K KC2010 03 17.90661 08 31 17.13 +24 17 27.7          18.3 R EF022B04
     K10F00K KC2010 03 17.90929 08 31 18.40 +24 17 52.8                 EF022J95
     K10F00K KC2010 03 17.91234 08 31 18.14 +24 18 35.1          18.8 R EF022J95
     K10F00K  C2010 03 17.91736 08 31 15.42 +24 19 55.1          19.7 R EF022473
     K10F00K  C2010 03 17.92152 08 31 15.08 +24 20 53.9          19.7 R EF022473
     K10F00K  C2010 03 18.13324 08 31 10.32 +25 10 52.4          19.9 V EF022H21
     K10F00K  C2010 03 18.13437108 31 10.21 +25 11 07.8          19.3 V EF022H21
     K10F00K  C2010 03 18.13550 08 31 10.09 +25 11 23.9          20.0 V EF022H21
     K10F00K  C2010 03 18.13663 08 31 09.97 +25 11 39.6          19.8 V EF022H21
     K10F00K  C2010 03 18.13779 08 31 09.87 +25 11 55.6          20.1 V EF022H21
     K10F00K  C2010 03 18.13908 08 31 09.74 +25 12 13.5          19.9 V EF022H21
     K10F00K  C2010 03 18.14244408 31 09.41 +25 13 00.0          19.4 V EF022H21
     K10F00K  C2010 03 18.14705 08 31 09.32 +25 13 56.7          20.0 R EF022H26
     K10F00K  C2010 03 18.14866 08 31 09.15 +25 14 17.9          19.2 R EF022H26
     K10F00K  C2010 03 18.15029 08 31 09.00 +25 14 39.4          19.6 R EF022H26
     K10F00K  C2010 03 18.15826 08 31 11.09 +25 16 57.4          18.8 R EF022H01
     K10F00K  C2010 03 18.15965 08 31 11.60 +25 17 21.3          19.6 V EF022G96
     K10F00K  C2010 03 18.16024 08 31 11.56 +25 17 29.4          19.5 V EF022G96
     K10F00K  C2010 03 18.16086 08 31 11.49 +25 17 37.8          19.6 V EF022G96
     K10F00K  C2010 03 18.16145 08 31 11.42 +25 17 46.0          19.6 V EF022G96
     K10F00K  C2010 03 18.16486 08 31 10.42 +25 18 29.4          18.9 R EF022H01
     K10F00K  C2010 03 18.17342 08 31 09.55 +25 20 28.5          18.9 R EF022H01
     K10F00K  C2010 03 18.18318 08 31 09.21 +25 22 51.7          19.3 R EF022926
     K10F00K  C2010 03 18.18415 08 31 08.46 +25 22 57.4          18.9 R EF022H01
     K10F00K  C2010 03 18.18517 08 31 09.01 +25 23 19.5          19.1 R EF022926
     K10F00K  C2010 03 18.18718 08 31 08.80 +25 23 47.5          19.2 R EF022926
     K10F00K KC2010 03 18.19538 08 31 05.59 +25 25 16.1          19.0 R EF022H36
     K10F00K KC2010 03 18.19730 08 31 05.41 +25 25 42.4          19.2 R EF022H36
     K10F00K KC2010 03 18.20115 08 31 05.06 +25 26 35.5          19.2 R EF022H36
     K10F00K tC2010 03 18.21826 08 31 05.74 +25 30 56.5          19.1 V EF022291
     K10F00K 1C2010 03 18.22057 08 31 07.81 +25 30 43.6                 EF022658
     K10F00K 1C2010 03 18.22206 08 31 07.68 +25 31 04.8                 EF022658
     K10F00K tC2010 03 18.22233 08 31 05.34 +25 31 52.7          19.0 V EF022291
     K10F00K 1C2010 03 18.22356 08 31 07.57 +25 31 24.9                 EF022658
     K10F00K tC2010 03 18.22651 08 31 04.93 +25 32 50.0          19.0 V EF022291

Observer details:
291 LPL/Spacewatch II.  Observer T. H. Bressi.  1.8-m f/2.7 reflector + CCD.
473 Remanzacco.  Observers L. Donato, V. Gonano, E. Guido, G. Sostero.  0.45-m
    f/4.4 Newtonian reflector + CCD.
658 National Research Council of Canada.  Observer D. D. Balam.  Measurers
    D. D. Balam, D. Bohlender, D. Monin, E. Chisholm.  1.82-m Plaskett
    telescope + CCD.
854 Sabino Canyon Observatory, Tucson.  Observer J. E. McGaha.  0.36-m f/10.0
    Schmidt-Cassegrain + CCD.
926 Tenagra II Observatory.  Observers P. R. Holvorcem, M. Schwartz.  Measurer
    P. R. Holvorcem.  0.81-m f/7 Ritchey-Chretien + CCD.
B04 OAVdA, Saint-Barthelemy.  Observer A. Carbognani.  0.81-m f/7.9 reflector
    + CCD.
E12 Siding Spring Survey.  Observer R. H. McNaught.  0.5-m Uppsala Schmidt
    + CCD.
G96 Mt. Lemmon Survey.  Observer R. E. Hill.  Measurers J. D. Ahern,
    E. C. Beshore, A. Boattini, G. J. Garradd, A. R. Gibbs, A. D. Grauer,
    R. E. Hill, R. A. Kowalski, S. M. Larson, R. H. McNaught.  1.5-m reflector
    + CCD.
H01 Magdalena Ridge Observatory, Socorro.  Observers W. H. Ryan, E. V. Ryan.
    Measurer W. H. Ryan.  2.4-m f/8.9 reflector + CCD.
H21 Astronomical Research Observatory, Westfield.  Observer R. Holmes.
    Measurers S. Foglia, H. Devore.  0.61-m f/4.5 astrograph + CCD.
H26 Doc Greiner Research Observatory, Janesvillle.  Observer M. Mills.  0.40-m
    f/8 Schmidt-Cassegrain + CCD.
H36 Sandlot Observatory, Scranton.  Observer G. Hug.  0.56-m reflector + CCD.
J95 Great Shefford.  Observer P. Birtwhistle.  0.40-m f/6.0 Schmidt-Cassegrain
    + CCD.

Orbital elements:
2010 FK                                                  Earth MOID = 0.0333 AU
Epoch 2010 Jan. 4.0 TT = JDT 2455200.5                  MPC
M 119.34703              (2000.0)            P               Q
n   1.08169348     Peri.  166.08510     +0.93841031     +0.34465778
a   0.9398674      Node   173.59345     -0.33425554     +0.92344899
e   0.0970899      Incl.   12.64986     -0.08751757     +0.16868013
P   0.91           H   23.8           G   0.15           U   7
Residuals in seconds of arc
100317 G96  0.0   0.4-    100317 H01  0.1+  0.4+    100318 H26  0.3+  0.9-
100317 G96  0.1-  0.3-    100317 E12  0.2-  0.1-    100318 H01  0.3-  0.3-
100317 G96  0.0   0.2-    100317 E12  0.4-  0.2+    100318 G96  0.4-  0.0
100317 G96  0.2+  0.2-    100317 B04  0.7-  0.1-    100318 G96  0.2-  0.1-
100317 H01  0.0   0.2-    100317 B04  0.2+  0.1+    100318 G96  0.2-  0.4-
100317 H01  0.1+  0.2-    100317 B04  0.1-  0.1+    100318 G96  0.4-  0.4-
100317 H21  0.1+  0.1-    100317 J95  0.1+  0.1-    100318 H01  0.2-  0.3-
100317 H21  0.1+  0.2-    100317 B04  0.1-  0.0     100318 H01  0.2-  0.3-
100317 H01  0.1+  0.0     100317 J95  0.1+  0.3+    100318 926  0.0   0.3-
100317 H21  0.1-  0.3-    100317 J95  0.2+  0.3-    100318 H01  0.1-  0.4-
100317 H21  0.1+  0.5-    100317 473  0.1-  0.2-    100318 926  0.0   0.1-
100317 H01  0.0   0.0     100317 473  0.1+  0.4+    100318 926  0.0   0.0
100317 854  0.4+  0.1-    100318 H21  0.0   0.2-    100318 H36  0.1-  0.3-
100317 854  0.4+  0.1+    100318 H21  0.0   0.5-    100318 H36  0.1-  0.4-
100317 854  1.5+  2.3+    100318 H21  0.1-  0.1-    100318 H36  0.0   0.3-
100317 H01  0.0   0.2+    100318 H21  0.3-  0.1-    100318 291  0.1-  0.3+
100317 291  0.1+  0.8-    100318 H21  0.1-  0.2-    100318 658  0.1+  0.0
100317 291  0.3-  0.1+    100318 H21  0.2-  0.3-    100318 658  0.1+  0.6+
100317 291  0.1-  0.5+    100318 H21  0.2-  0.5-    100318 291  0.1+  0.5+
100317 H01  0.1+  0.1+    100318 H26  0.6+  1.3+    100318 658  0.5+  0.1-
100317 H01  0.2+  0.2+    100318 H26  0.3+  0.2+    100318 291  0.2+  0.2+

Ephemeris:
2010 FK                  a,e,i = 0.94, 0.10, 13                  q = 0.8486
Date    TT    R. A. (2000) Decl.     Delta      r     Elong.  Phase     V
2010 03 15    08 33.66   +12 02.5    0.0489   1.028   133.2    44.8    19.0
2010 03 20    08 30.20   +32 00.2    0.0555   1.026   122.0    55.4    19.6
2010 03 25    08 29.31   +46 11.6    0.0672   1.023   111.2    65.3    20.3
2010 03 30    08 30.73   +55 41.0    0.0813   1.020   103.0    72.6    20.9
2010 04 04    08 34.03   +62 09.9    0.0964   1.016    96.7    77.9    21.5
2010 04 09    08 38.89   +66 46.9    0.112    1.011    91.7    81.9    21.9
2010 04 14    08 45.01   +70 13.4    0.127    1.006    87.6    85.1    22.3

Sonia Keys                   (C) Copyright 2010 MPC           M.P.E.C. 2010-F22

Read MPEC 2010-F21 Read MPEC 2010-F23


MPEC number:

Enter an
MPEC number in one of the following forms:
  • 1997-B01 (the full form)
  • J97B01 (the packed version of the full form)
  • B01 (the abbreviated form)

Valid HTML 4.01!